Date String (YYYY-MM-DD hh:mm:ss) UTC,Instrument flags,absolute air pressure of the measurement (hPa),sample flow rate (lpm),inlet stack bypass flow (lpm),air temperature of the measurement (°C),ambient temperature measured by the external sensor (°C),aerosol sample conditioner tube jacket temperature (°C),OPC LED temperature (°C),internal box temperature (°C),relative humidity of the measurement (%),span deviation,mass concentration of particles derived from Lorenz-Mie calculation of OPC scattering (μg/m³),mass concentration of particles derived from Lorenz-Mie calculation of OPC scattering (μg/m³),mass concentration of particles derived from Lorenz-Mie calculation of OPC scattering (μg/m³)
DateTimeUTC,F1_M11,P_M11,Q1_M11,Q2_M11,T1_M11,T2_M11,T3_M11,T4_M11,T5_M11,U1_M11,ZSPAN_M11,X0_M11,X2_M11,X1_M11
2024-02-15 03:00:00,SystemResetWarning,0828.4,4.99,000.00,021.9,021.3,000.0,030.4,023.7,18.3,0000.0,0008.74,0004.21,0003.75
2024-02-15 03:01:00,SystemResetWarning,0828.3,5.00,000.00,021.9,021.3,000.0,030.4,023.7,18.4,0000.0,0008.52,0004.20,0003.74
2024-02-15 03:02:00,SystemResetWarning,0828.4,4.99,000.00,021.9,021.3,000.0,030.4,023.7,18.3,0000.0,0008.32,0004.22,0003.74
2024-02-15 03:03:00,SystemResetWarning,0828.4,5.00,000.00,021.9,021.3,000.0,030.4,023.7,18.3,0000.0,0008.08,0004.24,0003.75
2024-02-15 03:04:00,SystemResetWarning,0828.4,5.00,000.00,021.9,021.3,000.0,030.4,023.7,18.3,0000.0,0008.22,0004.28,0003.76
2024-02-15 03:05:00,SystemResetWarning,0828.4,4.99,000.00,021.9,021.3,000.0,030.4,023.7,18.3,0000.0,0008.86,0004.28,0003.77
2024-02-15 03:06:00,SystemResetWarning,0828.4,5.01,000.00,021.9,021.3,000.0,030.4,023.7,18.3,0000.0,0008.80,0004.27,0003.78
2024-02-15 03:07:00,SystemResetWarning,0828.4,5.00,000.00,021.9,021.3,000.0,030.4,023.7,18.3,0000.0,0008.88,0004.30,0003.80
2024-02-15 03:08:00,SystemResetWarning,0828.3,5.00,000.00,021.9,021.3,000.0,030.4,023.7,18.3,0000.0,0008.66,0004.31,0003.80
2024-02-15 03:09:00,SystemResetWarning,0828.3,5.00,000.00,021.9,021.3,000.0,030.4,023.7,18.3,0000.0,0008.69,0004.35,0003.82
2024-02-15 03:10:00,SystemResetWarning,0828.3,5.01,000.00,021.9,021.3,000.0,030.4,023.7,18.2,0000.0,0008.75,0004.39,0003.83
2024-02-15 03:11:00,SystemResetWarning,0828.3,5.00,000.00,021.9,021.3,000.0,030.4,023.7,18.3,0000.0,0008.77,0004.41,0003.83
2024-02-15 03:12:00,SystemResetWarning,0828.4,5.00,000.00,021.9,021.3,000.0,030.4,023.7,18.3,0000.0,0008.97,0004.46,0003.85
2024-02-15 03:13:00,SystemResetWarning,0828.4,5.00,000.00,021.8,021.3,000.0,030.4,023.7,18.3,0000.0,0009.07,0004.45,0003.86
2024-02-15 03:14:00,SystemResetWarning,0828.4,5.01,000.00,021.8,021.3,000.0,030.4,023.7,18.4,0000.0,0009.07,0004.45,0003.87
2024-02-15 03:15:00,SystemResetWarning,0828.4,5.00,000.00,021.8,021.3,000.0,030.4,023.7,18.4,0000.0,0009.16,0004.43,0003.88
2024-02-15 03:16:00,SystemResetWarning,0828.4,5.00,000.00,021.8,021.3,000.0,030.4,023.7,18.4,0000.0,0008.83,0004.46,0003.89
2024-02-15 03:17:00,SystemResetWarning,0828.4,5.01,000.00,021.8,021.3,000.0,030.4,023.7,18.4,0000.0,0008.68,0004.47,0003.89
2024-02-15 03:18:00,SystemResetWarning,0828.5,5.00,000.00,021.8,021.3,000.0,030.4,023.7,18.4,0000.0,0008.69,0004.48,0003.89
2024-02-15 03:19:00,SystemResetWarning,0828.5,4.99,000.00,021.8,021.2,000.0,030.4,023.7,18.4,0000.0,0008.62,0004.47,0003.89
2024-02-15 03:20:00,SystemResetWarning,0828.6,4.99,000.00,021.8,021.2,000.0,030.4,023.7,18.5,0000.0,0008.62,0004.47,0003.89
2024-02-15 03:21:00,SystemResetWarning,0828.5,5.00,000.00,021.8,021.2,000.0,030.4,023.7,18.5,0000.0,0008.73,0004.48,0003.89
2024-02-15 03:22:00,SystemResetWarning,0828.4,5.00,000.00,021.8,021.2,000.0,030.3,023.7,18.5,0000.0,0008.62,0004.46,0003.88
2024-02-15 03:23:00,SystemResetWarning,0828.5,5.00,000.00,021.8,021.2,000.0,030.3,023.7,18.5,0000.0,0008.45,0004.42,0003.88
2024-02-15 03:24:00,SystemResetWarning,0828.4,5.00,000.00,021.8,021.2,000.0,030.3,023.7,18.5,0000.0,0008.34,0004.42,0003.86
2024-02-15 03:25:00,SystemResetWarning,0828.4,5.00,000.00,021.8,021.2,000.0,030.3,023.7,18.5,0000.0,0008.37,0004.42,0003.85
2024-02-15 03:26:00,SystemResetWarning,0828.4,5.01,000.00,021.8,021.2,000.0,030.3,023.7,18.5,0000.0,0008.31,0004.46,0003.84
2024-02-15 03:27:00,SystemResetWarning,0828.4,5.00,000.00,021.8,021.2,000.0,030.3,023.7,18.5,0000.0,0008.72,0004.43,0003.84
2024-02-15 03:28:00,SystemResetWarning,0828.4,5.00,000.00,021.8,021.2,000.0,030.3,023.6,18.5,0000.0,0009.33,0004.42,0003.84
2024-02-15 03:29:00,SystemResetWarning,0828.4,5.00,000.00,021.8,021.2,000.0,030.3,023.6,18.4,0000.0,0009.73,0004.42,0003.82
2024-02-15 03:30:00,SystemResetWarning,0828.4,5.00,000.00,021.8,021.2,000.0,030.3,023.7,18.4,0000.0,0010.29,0004.41,0003.82
2024-02-15 03:31:00,SystemResetWarning,0828.4,5.00,000.00,021.8,021.2,000.0,030.3,023.7,18.3,0000.0,0010.55,0004.38,0003.82
2024-02-15 03:32:00,SystemResetWarning,0828.4,5.00,000.00,021.8,021.2,000.0,030.3,023.6,18.3,0000.0,0010.62,0004.34,0003.81
2024-02-15 03:33:00,SystemResetWarning,0828.4,5.00,000.00,021.8,021.2,000.0,030.3,023.6,18.2,0000.0,0010.79,0004.35,0003.82
2024-02-15 03:34:00,SystemResetWarning,0828.4,5.00,000.00,021.8,021.2,000.0,030.3,023.6,18.3,0000.0,0011.01,0004.36,0003.83
2024-02-15 03:35:00,SystemResetWarning,0828.4,5.00,000.00,021.8,021.2,000.0,030.3,023.6,18.4,0000.0,0011.68,0004.37,0003.84
2024-02-15 03:36:00,SystemResetWarning,0828.4,5.00,000.00,021.8,021.2,000.0,030.3,023.6,18.3,0000.0,0012.38,0004.37,0003.84
2024-02-15 03:37:00,SystemResetWarning,0828.4,5.00,000.00,021.8,021.2,000.0,030.3,023.6,18.3,0000.0,0012.49,0004.34,0003.84
2024-02-15 03:38:00,SystemResetWarning,0828.4,5.00,000.00,021.8,021.2,000.0,030.3,023.6,18.3,0000.0,0012.03,0004.31,0003.83
2024-02-15 03:39:00,SystemResetWarning,0828.4,5.00,000.00,021.8,021.2,000.0,030.3,023.6,18.4,0000.0,0011.37,0004.29,0003.84
2024-02-15 03:40:00,SystemResetWarning,0828.5,5.00,000.00,021.7,021.2,000.0,030.3,023.6,18.4,0000.0,0010.96,0004.28,0003.84
2024-02-15 03:41:00,SystemResetWarning,0828.6,5.00,000.00,021.7,021.2,000.0,030.3,023.6,18.4,0000.0,0010.40,0004.29,0003.86
2024-02-15 03:42:00,SystemResetWarning,0828.5,4.99,000.00,021.7,021.2,000.0,030.3,023.6,18.4,0000.0,0010.10,0004.32,0003.86
2024-02-15 03:43:00,SystemResetWarning,0828.5,5.00,000.00,021.7,021.2,000.0,030.3,023.6,18.4,0000.0,0009.86,0004.33,0003.87
2024-02-15 03:44:00,SystemResetWarning,0828.5,5.00,000.00,021.7,021.1,000.0,030.3,023.6,18.4,0000.0,0009.63,0004.31,0003.87
2024-02-15 03:45:00,SystemResetWarning,0828.6,5.00,000.00,021.7,021.1,000.0,030.3,023.6,18.4,0000.0,0009.51,0004.33,0003.88
2024-02-15 03:46:00,SystemResetWarning,0828.5,5.01,000.00,021.7,021.1,000.0,030.3,023.6,18.4,0000.0,0008.97,0004.32,0003.88
2024-02-15 03:47:00,SystemResetWarning,0828.5,5.01,000.00,021.7,021.1,000.0,030.3,023.6,18.5,0000.0,0008.08,0004.31,0003.89
2024-02-15 03:48:00,SystemResetWarning,0828.5,5.01,000.00,021.7,021.1,000.0,030.3,023.6,18.5,0000.0,0007.78,0004.31,0003.90
2024-02-15 03:49:00,SystemResetWarning,0828.6,4.99,000.00,021.7,021.1,000.0,030.3,023.5,18.5,0000.0,0007.63,0004.32,0003.90
2024-02-15 03:50:00,SystemResetWarning,0828.6,4.99,000.00,021.7,021.1,000.0,030.3,023.5,18.5,0000.0,0007.62,0004.34,0003.90
2024-02-15 03:51:00,SystemResetWarning,0828.5,4.99,000.00,021.7,021.1,000.0,030.3,023.5,18.6,0000.0,0007.64,0004.36,0003.92
2024-02-15 03:52:00,SystemResetWarning,0828.5,5.00,000.00,021.7,021.1,000.0,030.2,023.5,18.6,0000.0,0007.66,0004.38,0003.93
2024-02-15 03:53:00,SystemResetWarning,0828.4,5.00,000.00,021.7,021.0,000.0,030.2,023.5,18.6,0000.0,0007.64,0004.38,0003.95
2024-02-15 03:54:00,SystemResetWarning,0828.5,5.00,000.00,021.7,021.0,000.0,030.2,023.5,18.5,0000.0,0007.72,0004.40,0003.95
2024-02-15 03:55:00,SystemResetWarning,0828.5,5.00,000.00,021.7,021.0,000.0,030.2,023.5,18.5,0000.0,0007.79,0004.44,0003.98
2024-02-15 03:56:00,SystemResetWarning,0828.6,5.00,000.00,021.6,021.0,000.0,030.2,023.5,18.5,0000.0,0007.76,0004.44,0004.00
2024-02-15 03:57:00,SystemResetWarning,0828.6,5.00,000.00,021.6,021.0,000.0,030.2,023.5,18.4,0000.0,0007.83,0004.47,0004.02
2024-02-15 03:58:00,SystemResetWarning,0828.6,5.00,000.00,021.6,021.0,000.0,030.2,023.5,18.4,0000.0,0008.69,0004.51,0004.04
2024-02-15 03:59:00,SystemResetWarning,0828.6,5.00,000.00,021.6,021.0,000.0,030.2,023.5,18.4,0000.0,0008.96,0004.52,0004.07
